Temp
9 9 8 8 8 8 8 8 8 8 8 8 8 8 8 8 8 8 8 8 8 8 8 8 8 8 8 8 8 8 8 8 8 8 7 7 7 7 7 7 7 7 7 7 7 7 7 7 7 6 6 6 6 6 6 6 6 6 6 5 5 5 5 4 4 4 4 3 3
8 8 8 8 8 8 8 8 8 8 8 8 8 7 7 7 7 8 8 8 8 8 8 8 8 8 8 8 8 8 8 8 8 7 7 7 7 7 7 7 7 7 7 7 7 7 7 7 6 6 6 6 6 6 6 6 6 6 6 5 5 5 4 4 4 4 4 3 3
8 8 8 8 8 8 8 8 8 8 8 7 7 7 7 7 7 7 7 7 8 8 8 8 8 8 8 8 8 8 7 7 7 7 7 7 7 7 7 7 7 7 7 7 7 7 7 6 6 6 6 6 6 6 6 6 6 6 5 5 5 5 4 4 4 4 4 3 3
8 8 8 8 8 8 8 8 8 7 7 7 7 7 7 7 7 7 7 7 7 7 7 8 8 8 8 7 7 7 7 7 7 7 7 7 7 7 7 7 7 6 6 6 6 6 6 6 6 6 6 6 6 6 6 6 6 5 5 5 5 5 4 4 4 4 3 3 3
8 8 8 8 8 8 8 7 7 7 7 7 7 7 7 7 7 7 7 7 7 7 7 7 7 7 7 7 7 7 7 7 7 7 7 6 6 6 6 6 6 6 6 6 6 6 6 6 6 6 6 6 6 6 6 6 5 5 5 5 5 4 4 4 4 4 3 3 3
8 8 8 8 8 8 7 7 7 7 7 7 7 7 7 7 7 7 7 7 7 7 7 7 7 7 7 7 7 6 6 6 6 6 6 6 6 6 6 6 6 6 6 6 6 6 6 6 6 6 5 5 5 6 6 6 5 5 5 5 5 5 4 4 4 4 3 3 2
8 8 8 8 7 7 7 7 7 7 7 7 7 7 7 7 7 7 6 6 6 6 6 6 6 6 6 6 6 6 6 6 6 6 6 6 6 6 6 6 6 6 6 6 6 6 6 6 5 5 5 5 5 6 6 6 5 5 5 5 5 5 4 4 4 3 3 3 3
8 8 7 7 7 7 7 7 7 7 7 7 7 7 7 7 7 6 6 6 6 6 6 6 6 6 6 6 6 6 6 6 6 6 6 6 6 6 6 6 6 6 6 6 6 6 5 5 5 5 5 5 5 5 5 5 5 5 5 5 5 5 4 4 4 3 3 3 2
8 7 7 7 7 7 6 6 6 7 7 7 7 7 7 7 7 6 6 6 6 6 6 6 6 6 5 5 5 6 6 6 6 6 6 6 6 6 6 6 6 6 6 6 5 5 5 5 5 5 5 5 5 5 5 5 5 5 5 5 5 5 4 4 4 3 3 3 2
7 7 7 7 6 6 6 6 6 7 7 7 7 7 7 7 7 6 6 6 6 6 6 6 5 5 5 5 5 5 5 5 5 5 5 5 6 6 6 6 6 6 5 5 5 5 5 5 5 5 5 5 5 5 5 5 5 5 5 5 5 5 4 4 4 3 3 2 2
7 7 7 6 6 6 6 6 6 7 7 7 7 7 7 7 7 6 6 6 6 6 6 6 5 5 5 5 5 5 5 5 5 5 5 5 5 5 5 6 5 5 5 5 5 5 5 5 5 5 5 5 5 5 5 5 5 5 5 4 4 4 4 4 4 3 3 2 2
7 6 6 6 6 6 6 6 6 6 7 7 7 7 6 6 6 6 6 6 6 6 6 6 5 5 5 5 5 5 5 5 5 5 5 5 5 5 5 5 5 5 5 5 5 5 5 5 5 5 5 5 5 5 5 4 4 4 4 4 4 4 4 4 3 3 2 2 2
6 6 6 6 6 6 6 6 6 6 6 6 6 6 6 6 6 6 6 6 6 6 6 6 6 5 5 5 5 5 5 5 5 5 5 5 5 5 5 5 5 5 5 5 5 5 5 5 4 4 4 4 4 4 4 4 4 4 4 4 3 3 3 3 3 3 2 2 1
6 6 6 6 6 6 6 6 6 6 6 6 6 6 6 6 6 6 6 6 6 6 6 6 6 6 6 5 5 5 5 5 5 5 5 5 5 5 5 5 5 5 5 5 5 5 5 4 4 4 4 4 4 4 3 3 3 3 3 3 3 3 3 3 3 2 2 1 1
6 6 6 6 6 6 6 6 6 6 6 6 6 6 6 6 6 6 6 6 6 6 6 6 6 5 5 5 5 5 5 5 5 5 5 5 5 5 5 5 5 5 5 5 5 4 4 4 4 4 3 3 3 3 3 3 3 2 2 2 2 2 2 2 2 2 1 1 1
6 6 6 6 6 6 6 6 6 6 6 6 6 6 6 6 6 5 5 5 5 5 5 5 5 5 5 5 5 5 5 5 5 5 5 5 5 5 5 5 5 5 5 4 4 4 4 4 4 3 3 3 3 2 2 2 2 2 2 2 2 2 2 2 1 1 1 1 0
6 6 6 6 6 6 6 6 6 6 6 6 6 6 6 6 5 5 5 5 5 5 5 5 5 5 5 5 5 5 5 5 5 5 5 5 5 5 5 5 4 4 4 4 4 4 4 3 3 3 3 2 2 2 2 2 2 2 2 2 2 2 1 1 1 1 1 0 0
6 6 6 6 6 6 6 6 6 6 6 6 6 6 6 5 5 5 5 5 5 5 5 5 5 5 5 5 5 5 5 5 5 5 5 5 5 4 4 4 4 4 4 4 3 3 3 3 3 3 2 2 2 1 1 1 1 1 1 1 1 1 1 1 1 1 0 0 -0
6 6 6 6 6 6 6 6 6 6 6 6 6 6 6 5 5 5 5 5 5 5 5 5 5 5 5 5 5 5 5 5 5 5 4 4 4 4 4 4 4 4 3 3 3 3 3 2 2 2 2 1 1 1 1 1 1 1 1 1 1 1 1 1 1 0 0 -0 -0
6 6 6 6 6 6 6 6 6 6 6 6 6 6 5 5 5 5 5 5 5 5 5 5 5 5 5 5 5 5 5 5 4 4 4 4 4 4 4 3 3 3 3 2 2 2 2 2 1 1 1 1 1 0 0 0 0 0 1 1 1 1 0 0 0 -0 -0 -0 -1
6 5 5 5 5 5 5 5 5 5 6 6 6 6 6 6 6 6 6 6 6 6 6 6 5 5 5 5 5 5 5 5 4 4 4 4 3 3 3 3 2 2 2 2 2 1 1 1 1 1 0 0 0 0 -0 -0 0 0 0 0 0 0 0 -0 -0 -0 -1 -1 -1
5 5 5 5 5 5 5 5 5 5 5 6 6 6 6 6 6 6 6 6 6 6 6 6 5 5 5 5 5 5 4 4 4 4 3 3 3 3 2 2 2 2 2 1 1 1 1 0 0 0 -0 -0 -0 -0 -0 -0 -0 -0 -0 -0 -0 -0 -0 -0 -1 -1 -1 -1 -1
5 5 5 5 5 5 5 5 5 5 5 6 6 6 6 6 6 6 6 6 6 6 6 5 5 5 5 5 4 4 4 4 4 3 3 3 2 2 2 2 1 1 1 1 1 0 0 -0 -0 -0 -0 -1 -1 -1 -1 -1 -1 -1 -1 -1 -1 -1 -1 -1 -1 -1 -1 -1 -1
5 5 5 5 5 5 5 5 5 5 5 6 6 6 6 6 6 6 6 6 6 5 5 5 5 5 5 4 4 4 4 3 3 3 3 3 2 2 2 2 1 1 1 1 0 0 -0 -1 -1 -1 -1 -1 -1 -1 -1 -1 -1 -1 -1 -1 -1 -1 -1 -1 -1 -1 -1 -1 -1
5 5 5 5 5 5 5 5 5 5 5 5 5 5 5 5 5 5 5 5 5 5 5 5 5 4 4 4 4 3 3 3 3 3 2 2 2 2 2 1 1 1 1 0 -0 -0 -1 -1 -1 -1 -1 -2 -2 -2 -2 -2 -2 -2 -1 -1 -1 -1 -1 -1 -1 -1 -1 -1 -1
5 5 5 5 5 5 5 5 5 5 5 5 5 5 5 5 5 5 5 5 5 5 5 4 4 4 4 3 3 3 3 2 2 2 2 2 2 1 1 1 1 0 0 -0 -0 -1 -1 -1 -2 -2 -2 -2 -2 -2 -2 -2 -2 -2 -2 -2 -2 -2 -2 -2 -2 -2 -1 -1 -1
4 5 5 5 5 5 5 5 5 5 5 5 5 5 5 5 5 5 5 5 5 4 4 4 4 3 3 3 3 2 2 2 2 2 1 1 1 1 1 1 0 -0 -0 -1 -1 -1 -1 -2 -2 -2 -2 -2 -2 -2 -2 -2 -2 -2 -2 -2 -2 -2 -2 -2 -2 -2 -1 -1 -1
4 4 4 5 5 5 5 5 5 5 5 5 5 5 5 5 5 4 4 4 4 4 4 3 3 3 2 2 2 2 2 2 1 1 1 1 0 0 0 0 -0 -0 -1 -1 -1 -2 -2 -2 -2 -3 -3 -3 -2 -2 -2 -2 -2 -2 -2 -2 -2 -2 -2 -2 -2 -2 -2 -2 -2
4 4 4 4 4 5 5 5 5 5 5 4 4 4 4 4 4 4 4 4 3 3 3 3 2 2 2 2 2 2 1 1 1 1 0 0 0 -0 -0 -0 -1 -1 -1 -1 -2 -2 -2 -2 -2 -2 -2 -2 -2 -2 -2 -2 -2 -2 -2 -2 -2 -2 -2 -2 -2 -2 -2 -2 -2
4 4 4 4 4 4 4 4 4 4 4 4 4 4 4 4 4 3 3 3 3 2 2 2 2 2 1 1 1 1 1 1 1 0 0 -0 -0 -0 -1 -1 -1 -1 -1 -2 -2 -2 -2 -2 -2 -2 -2 -2 -2 -2 -2 -2 -2 -2 -2 -2 -2 -2 -2 -2 -2 -2 -2 -2 -1
4 4 4 4 4 4 4 4 4 4 3 3 3 3 3 3 3 3 2 2 2 2 1 1 1 1 1 1 1 1 1 1 0 -0 -0 -1 -1 -1 -1 -1 -1 -1 -1 -2 -2 -2 -2 -2 -2 -2 -2 -2 -2 -2 -2 -2 -2 -2 -2 -2 -2 -2 -2 -2 -2 -1 -1 -1 -1
4 4 4 3 3 4 3 3 3 3 3 3 3 3 2 2 2 2 2 1 1 1 1 1 1 1 1 1 1 1 0 0 -0 -0 -1 -1 -1 -1 -1 -1 -1 -1 -1 -2 -2 -2 -2 -2 -2 -2 -2 -2 -2 -2 -2 -2 -2 -2 -2 -2 -2 -2 -2 -1 -1 -1 -1 -1 -2
3 3 3 3 3 3 3 3 2 2 2 2 2 2 2 2 2 2 1 1 1 1 1 1 1 1 0 0 0 0 0 -0 -1 -1 -1 -1 -1 -1 -1 -1 -1 -1 -1 -1 -2 -2 -2 -2 -2 -2 -2 -2 -2 -2 -2 -2 -2 -2 -2 -2 -2 -2 -1 -1 -1 -1 -2 -2 -2
3 3 2 2 2 2 2 2 2 2 2 1 2 1 1 1 1 1 1 1 0 0 0 0 0 0 0 -0 -0 -0 -1 -1 -1 -1 -1 -1 -2 -1 -1 -1 -1 -1 -1 -1 -2 -2 -2 -2 -2 -2 -2 -2 -2 -2 -2 -2 -2 -2 -2 -2 -2 -2 -2 -1 -2 -2 -2 -2 -2
2 2 2 2 1 1 1 1 1 1 1 1 1 1 1 1 1 1 0 0 0 0 0 0 0 -0 -0 -0 -1 -1 -1 -1 -1 -2 -2 -2 -2 -1 -1 -1 -1 -1 -1 -2 -2 -2 -2 -2 -3 -3 -3 -3 -2 -2 -2 -2 -2 -2 -2 -2 -2 -2 -2 -2 -2 -2 -2 -2 -2
1 1 1 1 1 1 1 1 1 1 1 1 1 1 1 1 0 0 -0 -0 -0 -0 -0 -0 -0 -0 -1 -1 -1 -1 -2 -2 -2 -2 -2 -2 -2 -2 -1 -1 -1 -1 -1 -2 -2 -2 -2 -3 -3 -3 -3 -3 -3 -2 -2 -2 -2 -2 -2 -2 -2 -2 -2 -2 -2 -2 -2 -2 -2
1 0 0 0 0 0 0 0 0 0 0 0 0 0 0 0 0 -0 -0 -1 -1 -1 -1 -1 -1 -1 -1 -1 -1 -2 -2 -2 -2 -2 -2 -2 -2 -2 -2 -2 -1 -1 -2 -2 -2 -2 -3 -3 -3 -3 -3 -3 -3 -2 -2 -2 -2 -2 -2 -2 -2 -2 -2 -2 -2 -2 -2 -2 -2
0 0 -0 -0 -0 -0 0 0 0 0 0 0 0 -0 -0 -0 -0 -1 -1 -1 -2 -2 -1 -1 -1 -1 -1 -2 -2 -2 -2 -2 -2 -2 -2 -2 -2 -2 -2 -2 -2 -2 -2 -2 -2 -2 -3 -3 -3 -3 -3 -3 -3 -2 -2 -2 -2 -2 -2 -2 -2 -2 -2 -2 -2 -2 -2 -2 -2
-0 -0 -0 -0 -0 -0 -0 -0 -0 -0 -0 -0 -0 -0 -1 -1 -1 -1 -1 -2 -2 -2 -2 -2 -2 -2 -2 -2 -2 -2 -2 -2 -2 -2 -2 -2 -2 -2 -2 -3 -2 -2 -2 -2 -2 -2 -2 -3 -3 -3 -3 -3 -2 -2 -2 -2 -2 -2 -2 -2 -2 -2 -2 -2 -2 -2 -2 -2 -3
-0 -0 -0 -0 -0 -0 -0 -0 -0 -1 -1 -1 -1 -1 -1 -2 -2 -2 -2 -2 -2 -2 -2 -2 -2 -2 -2 -3 -3 -3 -2 -2 -2 -2 -2 -2 -2 -2 -2 -3 -3 -2 -2 -2 -2 -2 -2 -2 -2 -3 -3 -2 -2 -2 -2 -2 -2 -2 -2 -2 -2 -2 -2 -2 -2 -2 -3 -3 -3
-0 -0 -0 -0 -1 -1 -1 -1 -1 -1 -1 -1 -2 -2 -2 -2 -2 -2 -2 -2 -2 -3 -3 -3 -3 -2 -3 -3 -3 -3 -3 -2 -2 -2 -2 -2 -2 -2 -2 -3 -2 -2 -2 -2 -2 -2 -2 -2 -2 -2 -2 -2 -2 -2 -2 -2 -2 -2 -2 -2 -2 -2 -2 -2 -3 -3 -3 -3 -3
Height
1515 1514 1513 1512 1511 1510 1509 1508 1507 1506 1505 1503 1502 1501 1500 1499 1498 1497 1497 1496 1495 1495 1494 1493 1493 1492 1492 1492 1491 1490 1489 1488 1487 1487 1486 1485 1484 1484 1483 1482 1481 1481 1480 1479 1478 1477 1476 1475 1474 1472 1471 1470 1469 1468 1468 1467 1467 1465 1465 1464 1462 1461 1461 1460 1459 1458 1458 1457 1456
1514 1513 1512 1511 1510 1509 1508 1506 1505 1504 1503 1501 1500 1499 1498 1497 1496 1495 1495 1494 1494 1493 1492 1491 1491 1490 1490 1490 1489 1488 1487 1486 1485 1485 1484 1483 1482 1482 1481 1480 1479 1479 1478 1477 1476 1475 1474 1473 1471 1470 1468 1467 1466 1465 1465 1465 1464 1463 1461 1460 1460 1459 1458 1457 1455 1455 1455 1454 1453
1513 1512 1510 1510 1508 1507 1506 1505 1503 1502 1501 1500 1499 1497 1496 1495 1494 1493 1492 1492 1492 1491 1490 1490 1489 1489 1488 1487 1487 1486 1485 1484 1484 1483 1482 1481 1480 1480 1479 1478 1477 1476 1475 1475 1474 1473 1472 1470 1469 1467 1466 1464 1464 1463 1462 1461 1461 1460 1458 1457 1457 1456 1455 1453 1452 1452 1451 1450 1450
1511 1510 1509 1508 1507 1505 1504 1503 1501 1500 1499 1498 1496 1495 1494 1493 1492 1491 1490 1490 1490 1489 1488 1487 1487 1486 1485 1485 1484 1484 1483 1482 1481 1480 1480 1479 1478 1477 1477 1476 1475 1474 1473 1472 1471 1470 1469 1468 1466 1465 1463 1462 1461 1460 1459 1459 1458 1457 1455 1454 1454 1453 1451 1450 1449 1449 1448 1447 1446
1510 1509 1507 1506 1505 1504 1502 1501 1500 1498 1497 1495 1494 1493 1492 1491 1490 1489 1488 1488 1487 1487 1486 1485 1485 1484 1483 1483 1482 1481 1481 1480 1479 1478 1477 1476 1476 1475 1475 1474 1473 1472 1471 1470 1469 1468 1467 1465 1464 1462 1460 1459 1458 1457 1456 1456 1455 1454 1452 1451 1450 1449 1448 1447 1446 1445 1445 1443 1442
1508 1507 1505 1504 1503 1502 1500 1499 1498 1496 1495 1493 1492 1490 1489 1488 1487 1487 1486 1485 1485 1485 1484 1484 1483 1482 1481 1480 1480 1479 1478 1478 1477 1476 1475 1474 1473 1473 1472 1471 1470 1469 1468 1467 1466 1465 1464 1463 1461 1459 1458 1456 1455 1454 1454 1453 1452 1450 1449 1448 1446 1445 1445 1443 1442 1442 1441 1440 1439
1506 1505 1503 1502 1501 1499 1498 1497 1495 1494 1492 1491 1490 1488 1487 1486 1485 1484 1484 1483 1483 1482 1482 1481 1481 1480 1479 1478 1478 1477 1476 1475 1475 1474 1473 1472 1471 1470 1470 1469 1468 1467 1466 1465 1464 1463 1461 1460 1458 1456 1455 1454 1452 1451 1451 1450 1449 1447 1446 1444 1443 1442 1441 1440 1439 1438 1437 1436 1435
1504 1502 1501 1500 1499 1497 1496 1495 1493 1491 1490 1489 1487 1486 1485 1483 1482 1482 1481 1480 1480 1480 1480 1480 1479 1478 1477 1476 1475 1475 1474 1473 1472 1472 1471 1470 1469 1468 1467 1466 1465 1464 1463 1462 1461 1460 1459 1457 1455 1454 1452 1451 1450 1449 1448 1447 1446 1444 1443 1441 1440 1439 1438 1436 1435 1435 1433 1432 1431
1501 1500 1499 1498 1496 1495 1494 1492 1491 1489 1488 1486 1485 1484 1482 1481 1480 1479 1479 1478 1478 1478 1477 1477 1476 1475 1475 1474 1473 1472 1471 1470 1470 1469 1468 1467 1466 1465 1464 1463 1462 1461 1460 1460 1459 1457 1456 1454 1452 1451 1449 1448 1447 1445 1445 1444 1443 1441 1439 1438 1437 1435 1434 1433 1432 1431 1430 1429 1428
1499 1498 1497 1495 1494 1493 1492 1490 1489 1487 1486 1484 1483 1482 1480 1479 1478 1477 1476 1476 1476 1475 1475 1474 1474 1473 1472 1471 1470 1470 1469 1468 1467 1466 1465 1464 1463 1462 1461 1460 1459 1458 1457 1456 1455 1454 1453 1451 1449 1448 1446 1445 1444 1442 1441 1441 1440 1438 1436 1435 1433 1432 1431 1430 1429 1428 1426 1425 1424
1497 1496 1495 1494 1492 1491 1490 1488 1486 1485 1484 1482 1481 1480 1479 1478 1476 1475 1475 1474 1473 1473 1472 1472 1471 1470 1469 1469 1468 1467 1466 1465 1464 1463 1462 1461 1460 1459 1458 1457 1456 1455 1454 1453 1452 1451 1450 1447 1446 1444 1443 1442 1440 1439 1438 1437 1436 1434 1432 1431 1430 1429 1427 1426 1425 1425 1423 1421 1420
1495 1494 1493 1492 1490 1489 1487 1486 1484 1483 1482 1480 1479 1478 1477 1476 1475 1474 1473 1472 1471 1471 1470 1470 1469 1468 1467 1466 1465 1464 1463 1462 1461 1460 1459 1457 1456 1456 1455 1454 1453 1452 1451 1450 1449 1448 1446 1444 1442 1441 1440 1438 1437 1436 1434 1433 1432 1430 1429 1427 1426 1425 1423 1422 1421 1421 1420 1418 1417
1494 1492 1491 1490 1488 1486 1485 1484 1482 1481 1480 1479 1477 1476 1475 1474 1474 1472 1471 1470 1470 1469 1468 1468 1467 1466 1465 1464 1463 1462 1460 1459 1458 1457 1455 1454 1453 1452 1451 1450 1449 1448 1447 1446 1445 1444 1442 1440 1439 1437 1436 1435 1433 1432 1431 1429 1428 1426 1425 1423 1422 1421 1420 1418 1418 1417 1416 1415 1414
1492 1490 1489 1487 1486 1485 1483 1482 1480 1479 1478 1477 1476 1475 1474 1473 1472 1471 1470 1469 1468 1467 1466 1465 1465 1464 1463 1461 1460 1459 1458 1456 1455 1454 1452 1451 1450 1449 1448 1446 1445 1445 1444 1442 1441 1440 1439 1437 1435 1434 1432 1430 1429 1428 1427 1426 1424 1422 1421 1419 1418 1417 1415 1415 1414 1413 1413 1411 1410
1490 1488 1487 1485 1484 1483 1481 1480 1479 1477 1476 1475 1474 1473 1472 1471 1470 1469 1468 1467 1466 1465 1464 1463 1462 1461 1460 1459 1457 1456 1455 1453 1452 1450 1449 1447 1446 1445 1444 1443 1442 1440 1440 1438 1437 1436 1434 1433 1431 1430 1428 1427 1425 1424 1423 1422 1420 1419 1417 1415 1414 1413 1412 1411 1410 1410 1409 1407 1406
1487 1486 1485 1483 1482 1481 1480 1478 1477 1476 1475 1473 1472 1471 1470 1469 1468 1467 1466 1465 1464 1462 1461 1460 1459 1458 1457 1456 1455 1453 1451 1450 1448 1447 1445 1444 1443 1441 1440 1439 1438 1436 1435 1434 1432 1431 1430 1429 1427 1426 1424 1423 1421 1420 1419 1418 1416 1415 1413 1412 1410 1409 1408 1407 1406 1405 1405 1404 1403
1485 1484 1483 1482 1480 1479 1478 1476 1475 1474 1473 1472 1470 1470 1468 1467 1466 1465 1464 1463 1461 1460 1459 1458 1456 1455 1454 1452 1451 1450 1448 1446 1445 1443 1442 1440 1439 1437 1436 1435 1434 1432 1431 1430 1428 1427 1425 1425 1423 1422 1420 1419 1417 1416 1415 1413 1412 1411 1409 1408 1407 1405 1404 1403 1403 1402 1401 1400 1399
1484 1483 1481 1480 1479 1477 1476 1475 1474 1472 1471 1470 1469 1468 1466 1465 1464 1463 1462 1461 1460 1458 1456 1455 1454 1452 1451 1449 1448 1447 1445 1443 1441 1440 1438 1437 1435 1434 1432 1431 1430 1428 1427 1425 1424 1422 1421 1420 1419 1418 1416 1415 1413 1412 1410 1409 1407 1406 1405 1404 1403 1401 1400 1399 1399 1398 1397 1396 1395
1482 1481 1480 1478 1477 1475 1474 1473 1472 1470 1470 1468 1467 1466 1465 1464 1462 1461 1460 1458 1457 1455 1454 1452 1450 1449 1448 1446 1445 1443 1442 1440 1438 1436 1434 1433 1431 1430 1428 1427 1425 1424 1423 1421 1420 1418 1417 1416 1415 1413 1412 1410 1409 1407 1406 1405 1403 1402 1400 1399 1398 1397 1396 1395 1394 1394 1393 1392 1391
1480 1479 1478 1476 1475 1474 1472 1471 1470 1469 1467 1466 1465 1464 1462 1461 1460 1459 1457 1455 1454 1453 1451 1449 1447 1445 1444 1443 1441 1439 1438 1436 1434 1432 1430 1429 1427 1425 1424 1422 1421 1420 1418 1417 1415 1414 1412 1411 1410 1409 1408 1406 1405 1403 1402 1400 1399 1397 1396 1395 1393 1392 1391 1391 1390 1390 1389 1389 1388
1479 1477 1476 1475 1473 1472 1470 1469 1468 1467 1465 1464 1463 1461 1460 1459 1457 1456 1454 1453 1451 1450 1448 1446 1444 1442 1440 1439 1437 1435 1433 1432 1430 1428 1426 1424 1423 1421 1420 1419 1417 1415 1414 1412 1411 1410 1408 1407 1406 1405 1403 1402 1400 1399 1397 1396 1394 1393 1391 1390 1389 1388 1387 1387 1386 1385 1385 1385 1385
1476 1475 1474 1472 1471 1470 1468 1467 1466 1465 1463 1462 1460 1459 1457 1456 1454 1453 1451 1450 1448 1446 1444 1442 1440 1438 1436 1435 1433 1431 1429 1427 1426 1424 1422 1420 1419 1417 1416 1415 1413 1411 1409 1408 1407 1405 1404 1403 1402 1400 1399 1397 1396 1394 1393 1392 1390 1389 1387 1386 1385 1384 1383 1383 1382 1382 1381 1381 1381
1475 1473 1472 1470 1469 1467 1466 1465 1463 1462 1460 1459 1457 1456 1454 1453 1451 1450 1448 1446 1445 1443 1441 1439 1437 1435 1433 1431 1429 1427 1425 1423 1421 1420 1419 1417 1415 1413 1412 1410 1409 1407 1405 1404 1403 1402 1400 1399 1397 1396 1395 1393 1392 1390 1389 1387 1386 1385 1383 1382 1381 1380 1380 1379 1379 1378 1378 1378 1378
1472 1471 1469 1468 1466 1465 1464 1462 1460 1459 1458 1456 1455 1453 1451 1450 1448 1446 1445 1443 1441 1439 1437 1435 1433 1431 1429 1427 1425 1424 1421 1419 1417 1416 1414 1413 1411 1410 1408 1406 1405 1403 1402 1400 1399 1398 1397 1395 1393 1392 1390 1389 1387 1386 1384 1383 1382 1380 1379 1378 1377 1376 1376 1375 1375 1375 1375 1375 1374
1470 1468 1467 1465 1464 1462 1461 1460 1458 1456 1455 1453 1451 1450 1448 1446 1445 1443 1441 1439 1437 1436 1434 1432 1430 1428 1426 1424 1422 1420 1418 1416 1414 1412 1410 1409 1407 1406 1405 1403 1401 1400 1398 1397 1396 1395 1394 1392 1390 1389 1387 1385 1384 1382 1380 1379 1378 1377 1375 1375 1374 1373 1372 1371 1371 1371 1371 1371 1371
1468 1466 1464 1463 1461 1460 1458 1457 1455 1453 1451 1450 1448 1446 1445 1443 1441 1439 1437 1435 1434 1432 1430 1428 1426 1424 1422 1420 1418 1416 1415 1413 1411 1409 1407 1405 1404 1402 1401 1399 1398 1396 1395 1394 1393 1391 1390 1389 1388 1386 1385 1383 1381 1380 1378 1376 1375 1374 1372 1371 1370 1370 1369 1368 1367 1367 1367 1367 1367
1465 1463 1461 1460 1458 1457 1455 1454 1452 1450 1448 1447 1445 1443 1441 1440 1438 1436 1434 1432 1430 1428 1426 1425 1423 1420 1419 1416 1415 1413 1411 1410 1408 1406 1404 1402 1400 1399 1397 1395 1394 1393 1391 1390 1389 1388 1387 1386 1385 1384 1383 1381 1380 1378 1376 1374 1373 1371 1370 1369 1368 1367 1366 1365 1364 1364 1364 1363 1363
1463 1460 1459 1457 1455 1454 1452 1451 1449 1447 1445 1443 1441 1440 1438 1436 1434 1432 1430 1429 1426 1425 1423 1421 1419 1417 1415 1413 1411 1410 1408 1406 1405 1403 1401 1399 1397 1395 1394 1392 1390 1389 1388 1387 1386 1385 1384 1383 1382 1381 1380 1379 1377 1375 1374 1372 1370 1369 1368 1367 1366 1365 1364 1362 1361 1361 1360 1360 1360
1460 1458 1456 1454 1452 1451 1449 1448 1446 1444 1442 1440 1438 1436 1435 1433 1431 1429 1427 1425 1423 1421 1419 1417 1415 1413 1412 1410 1408 1406 1405 1403 1401 1400 1398 1395 1394 1392 1390 1389 1387 1386 1385 1385 1383 1382 1381 1380 1379 1378 1377 1376 1375 1373 1371 1369 1368 1366 1365 1364 1364 1363 1362 1360 1359 1358 1357 1356 1355
1457 1455 1453 1451 1449 1448 1446 1444 1442 1440 1439 1437 1435 1433 1431 1429 1427 1425 1424 1421 1420 1418 1416 1414 1412 1410 1408 1406 1405 1403 1401 1399 1398 1396 1394 1392 1390 1389 1387 1386 1384 1383 1382 1381 1380 1379 1378 1376 1375 1375 1374 1373 1372 1370 1368 1367 1365 1364 1363 1361 1360 1360 1359 1358 1356 1355 1354 1353 1352
1454 1452 1450 1448 1446 1444 1443 1441 1439 1437 1435 1433 1431 1430 1428 1426 1424 1422 1420 1418 1416 1414 1412 1411 1409 1407 1405 1403 1401 1400 1397 1396 1394 1393 1391 1389 1387 1385 1384 1382 1381 1380 1379 1378 1377 1376 1375 1373 1372 1371 1370 1370 1369 1367 1365 1364 1363 1361 1360 1359 1358 1357 1356 1355 1354 1353 1352 1351 1350
1451 1449 1447 1445 1443 1441 1439 1438 1436 1434 1432 1430 1428 1426 1425 1423 1421 1419 1417 1415 1413 1411 1409 1407 1405 1403 1401 1400 1398 1396 1394 1393 1391 1389 1388 1386 1385 1382 1380 1379 1378 1377 1376 1375 1374 1373 1371 1370 1370 1368 1368 1367 1365 1364 1363 1361 1360 1359 1357 1356 1355 1354 1353 1353 1352 1351 1350 1350 1349
1448 1446 1444 1442 1440 1438 1436 1435 1433 1431 1429 1427 1425 1424 1422 1420 1418 1416 1414 1412 1410 1408 1406 1404 1402 1400 1398 1396 1394 1392 1391 1389 1388 1386 1385 1383 1381 1380 1378 1376 1375 1374 1373 1372 1371 1370 1369 1367 1366 1365 1365 1364 1362 1361 1360 1358 1357 1355 1354 1353 1352 1351 1351 1350 1349 1349 1348 1347 1346
1445 1443 1441 1439 1437 1435 1433 1431 1430 1428 1426 1424 1422 1421 1419 1417 1415 1413 1411 1409 1407 1405 1403 1401 1399 1397 1395 1393 1391 1389 1387 1385 1384 1383 1381 1380 1379 1377 1375 1373 1371 1371 1370 1369 1368 1367 1366 1365 1364 1363 1362 1360 1359 1358 1356 1355 1354 1352 1351 1350 1349 1349 1348 1347 1346 1345 1345 1344 1344
1442 1440 1438 1436 1434 1433 1431 1429 1427 1425 1424 1422 1420 1418 1416 1414 1412 1410 1408 1406 1404 1402 1400 1398 1396 1394 1392 1390 1388 1387 1385 1383 1381 1380 1379 1377 1375 1374 1372 1370 1369 1368 1367 1366 1365 1364 1363 1362 1361 1360 1359 1358 1356 1355 1353 1352 1350 1350 1348 1347 1346 1345 1345 1344 1343 1342 1341 1341 1340
1440 1438 1435 1434 1432 1430 1428 1427 1425 1423 1421 1419 1417 1415 1413 1411 1409 1407 1405 1403 1401 1398 1396 1394 1392 1390 1389 1387 1385 1384 1382 1380 1378 1377 1375 1374 1373 1371 1369 1367 1365 1365 1364 1364 1362 1361 1360 1359 1358 1357 1356 1355 1353 1352 1350 1349 1348 1347 1345 1344 1343 1342 1341 1341 1340 1339 1339 1338 1337
1437 1435 1434 1431 1430 1428 1426 1424 1422 1420 1418 1416 1414 1412 1410 1408 1405 1404 1402 1400 1398 1395 1393 1391 1389 1387 1385 1384 1382 1380 1379 1378 1376 1374 1372 1371 1370 1368 1366 1364 1362 1361 1361 1360 1360 1359 1357 1356 1355 1355 1353 1352 1350 1349 1348 1347 1345 1344 1342 1341 1340 1339 1339 1338 1337 1336 1336 1335 1335
1435 1434 1432 1430 1428 1426 1424 1422 1420 1418 1416 1414 1411 1410 1408 1405 1403 1401 1399 1397 1395 1392 1390 1388 1386 1384 1382 1381 1379 1377 1375 1375 1373 1372 1370 1368 1367 1365 1364 1361 1360 1359 1358 1358 1357 1356 1355 1354 1353 1352 1351 1350 1348 1347 1345 1344 1343 1341 1340 1339 1337 1336 1336 1335 1335 1334 1333 1332 1332
1433 1432 1430 1428 1426 1424 1422 1420 1418 1416 1413 1411 1409 1406 1405 1403 1400 1398 1396 1395 1393 1390 1388 1385 1383 1381 1380 1378 1376 1374 1372 1371 1370 1369 1368 1366 1364 1363 1362 1360 1357 1356 1355 1355 1355 1354 1352 1351 1350 1350 1349 1347 1346 1345 1343 1342 1340 1339 1337 1336 1335 1334 1333 1333 1332 1331 1330 1330 1329
1431 1430 1428 1426 1424 1422 1420 1417 1415 1413 1411 1409 1406 1404 1402 1400 1398 1396 1394 1392 1390 1388 1386 1383 1380 1379 1377 1375 1374 1371 1369 1368 1367 1366 1365 1364 1362 1361 1360 1358 1356 1354 1353 1353 1352 1351 1350 1349 1348 1347 1346 1345 1344 1343 1341 1340 1338 1336 1335 1334 1333 1332 1331 1330 1329 1329 1328 1327 1326
1430 1428 1426 1424 1422 1420 1417 1415 1412 1410 1409 1406 1404 1402 1400 1397 1395 1393 1391 1390 1388 1386 1384 1381 1378 1376 1375 1373 1371 1369 1366 1365 1364 1363 1363 1361 1360 1359 1357 1356 1354 1352 1351 1350 1350 1349 1348 1347 1345 1345 1344 1343 1342 1341 1340 1338 1336 1335 1333 1332 1331 1330 1329 1327 1327 1326 1325 1324 1323
Wind_Speed
24 25 25 26 27 27 28 29 30 31 31 30 30 29 30 30 31 30 30 29 28 28 28 27 27 27 27 27 27 27 27 26 26 26 26 26 26 26 26 26 26 26 27 27 27 28 29 29 31 32 33 34 34 35 35 35 36 36 37 37 38 39 39 40 41 41 41 42 43
25 26 27 27 28 29 30 31 32 32 31 30 30 30 31 32 32 32 31 30 30 30 29 29 29 28 28 28 28 28 28 28 28 27 27 27 27 27 27 27 27 27 28 28 28 29 30 30 31 32 34 34 35 35 36 36 36 37 38 38 38 39 40 41 41 41 41 42 43
27 28 28 29 30 31 32 33 33 32 30 30 30 30 31 32 33 33 33 32 31 31 31 31 31 30 30 30 29 29 29 29 28 28 28 28 28 28 28 28 28 29 29 29 30 30 31 31 32 33 34 35 36 36 36 37 37 37 38 39 39 39 40 41 41 41 42 43 43
28 29 30 30 31 32 33 33 32 31 30 29 29 30 31 32 33 33 33 33 32 32 32 32 32 32 31 31 30 30 30 29 29 29 29 29 29 29 29 30 30 30 30 30 31 31 31 32 33 34 35 36 37 37 37 38 38 38 39 40 40 40 41 41 42 42 42 43 43
30 31 31 32 33 33 33 32 31 31 30 29 29 30 31 32 32 33 33 33 33 33 33 33 33 32 32 31 31 30 30 30 30 30 30 30 30 30 31 31 31 31 31 32 32 32 32 33 34 35 36 37 38 39 39 39 39 39 40 41 41 41 42 42 42 42 43 43 44
31 32 33 33 33 33 33 32 31 31 30 30 30 30 31 31 32 32 32 32 33 33 33 33 33 32 32 31 30 30 30 30 30 30 31 31 32 32 32 32 32 33 33 33 33 33 34 34 35 36 38 38 39 40 40 40 40 41 41 42 42 43 43 43 43 43 43 44 44
32 33 33 33 33 33 32 32 32 31 31 30 30 29 30 30 31 31 31 31 32 32 32 32 31 31 30 30 30 30 30 30 31 31 32 33 33 33 34 34 34 34 34 34 35 35 35 36 37 38 39 40 41 41 42 42 42 42 43 43 44 44 44 44 44 44 44 44 44
34 33 33 32 32 32 32 32 32 32 31 31 30 29 29 29 29 30 30 30 30 30 30 29 29 29 29 29 29 30 31 31 32 33 34 34 35 36 36 36 36 36 36 36 36 36 36 37 38 39 40 41 42 43 43 43 43 44 44 44 45 45 45 45 45 45 45 45 45
33 33 32 32 31 31 32 32 32 32 32 31 30 29 28 28 28 29 29 29 29 29 28 28 28 28 28 29 30 31 32 33 34 35 36 36 37 37 38 38 38 38 38 37 37 37 37 38 39 40 41 42 43 44 44 44 44 45 45 46 46 46 46 46 46 46 46 46 46
33 32 32 32 32 32 32 32 32 32 32 31 30 29 28 27 27 28 28 28 28 28 28 28 29 29 30 31 33 34 35 36 37 37 38 39 39 39 39 40 39 39 39 38 38 38 38 39 40 41 42 43 43 44 45 45 45 46 47 47 47 47 47 47 46 46 46 46 46
32 32 32 32 32 32 32 32 32 32 31 31 30 28 27 27 27 27 27 28 28 29 30 31 31 32 33 34 36 37 38 39 40 40 41 41 41 41 41 40 40 40 39 39 39 39 40 41 42 42 43 44 44 44 45 46 46 47 47 48 48 48 47 47 47 46 46 47 47
32 32 32 32 32 32 32 32 32 31 31 30 29 28 27 26 26 27 27 28 29 30 31 32 34 35 36 38 39 40 41 41 42 43 43 43 43 42 41 41 40 40 40 39 39 40 40 41 42 43 43 44 44 45 45 46 47 47 48 48 48 48 48 48 47 47 46 46 46
32 32 32 32 32 32 32 32 31 31 30 30 29 28 27 26 26 26 27 28 30 31 32 34 35 37 38 40 41 42 43 43 44 43 43 43 42 42 41 41 40 40 40 40 40 41 41 42 42 43 43 44 44 45 45 46 46 47 47 48 48 48 48 48 48 47 46 46 46
32 32 32 32 32 32 31 31 31 30 30 29 29 28 27 27 26 26 26 28 30 31 33 35 36 38 39 40 42 42 43 43 43 42 42 41 41 40 40 40 40 41 41 41 42 42 42 42 42 42 43 43 44 44 44 44 44 45 46 46 47 47 48 48 47 46 45 45 45
32 32 32 32 31 31 31 30 30 30 30 29 29 28 28 27 27 26 26 27 28 30 31 33 34 36 37 38 39 40 40 40 40 40 40 40 40 40 41 41 41 42 42 43 43 44 43 43 43 43 43 43 43 44 44 43 43 44 44 45 46 47 47 47 46 46 45 45 45
32 32 31 31 31 30 30 30 30 30 29 29 29 29 28 28 28 27 27 28 28 29 30 31 32 33 34 35 36 37 38 39 39 40 40 41 42 42 42 43 43 44 44 45 45 45 45 45 44 44 43 43 43 43 44 44 43 43 44 44 45 46 46 46 46 45 44 44 44
32 31 31 30 30 30 30 29 30 30 29 29 29 29 29 29 29 29 29 30 30 31 32 32 33 34 35 36 37 37 38 40 41 41 42 43 44 44 45 45 46 46 46 47 47 47 47 47 46 45 43 43 43 43 44 44 44 44 44 44 45 45 46 46 45 44 44 43 43
32 31 30 30 30 29 30 30 30 30 30 30 30 30 31 31 31 32 32 32 33 34 35 36 36 37 38 39 40 40 41 42 43 44 45 46 46 47 47 48 48 48 48 48 49 49 48 48 47 45 44 43 43 43 44 44 45 45 45 45 45 45 45 45 45 44 43 42 42
31 31 30 30 30 30 30 30 30 30 31 31 32 32 32 33 33 34 34 35 36 37 38 39 40 41 41 42 43 44 44 45 46 47 47 48 48 49 49 49 49 49 49 49 49 48 48 47 46 44 43 43 43 43 43 44 45 45 45 44 44 44 44 44 44 43 42 41 41
31 30 30 30 30 30 30 31 31 32 32 33 33 34 34 35 35 36 37 38 38 39 41 42 43 44 45 45 46 47 47 47 47 48 48 48 48 48 49 49 48 48 48 47 47 47 46 45 44 43 42 42 43 43 44 44 44 44 44 44 44 44 44 43 42 41 40 40 39
31 30 30 30 31 31 31 32 32 33 34 35 35 36 37 37 38 39 40 40 41 42 43 44 45 46 47 47 48 48 48 48 47 47 47 47 46 46 46 45 45 46 46 45 45 45 44 43 43 42 42 42 42 43 43 43 43 43 43 43 43 43 42 42 41 40 39 38 37
31 31 31 31 32 32 33 33 34 35 36 37 38 38 39 40 41 41 42 42 43 44 44 45 46 47 47 48 48 48 48 48 47 46 45 44 44 43 43 42 42 43 43 43 43 42 42 42 41 41 41 41 42 42 42 42 42 42 42 42 42 41 41 40 39 38 37 37 36
32 32 32 33 33 34 35 36 36 37 38 39 40 41 41 42 43 43 43 44 44 44 45 46 46 47 47 47 47 47 47 47 46 45 44 43 43 42 42 41 41 41 41 41 41 41 40 40 40 40 40 40 40 40 40 40 40 40 40 40 40 40 39 39 38 37 37 36 36
33 34 34 35 35 36 37 38 39 39 40 41 42 43 43 44 44 44 44 44 44 45 45 46 46 46 46 46 46 46 46 45 45 45 44 43 43 42 42 41 41 41 41 41 40 39 39 38 39 39 38 38 39 39 39 39 39 39 39 39 39 39 38 38 38 37 37 37 36
35 35 36 37 37 38 39 40 41 42 42 43 44 44 45 45 45 45 45 45 45 45 45 45 45 45 45 45 45 45 45 44 44 44 44 44 43 43 42 42 41 41 41 40 39 38 37 36 36 37 37 37 37 38 38 39 39 39 39 39 39 39 39 38 38 38 37 37 36
37 37 38 39 39 40 41 42 42 43 44 45 45 45 46 46 45 45 45 45 44 44 44 45 45 45 45 45 45 45 44 44 44 43 43 43 43 43 42 42 41 41 40 40 38 37 36 35 35 34 34 35 36 37 38 39 39 40 40 40 40 40 40 40 40 39 39 38 38
39 39 40 41 41 42 43 43 44 45 45 46 46 46 46 46 45 45 45 44 44 44 44 44 44 44 45 45 45 45 44 44 44 43 43 42 42 42 42 42 41 40 39 38 37 37 36 35 34 34 33 34 35 36 37 38 39 39 40 40 41 41 42 42 42 42 41 40 39
40 41 42 43 43 43 44 45 45 46 46 46 46 46 46 46 45 45 44 44 45 45 45 45 45 45 45 45 45 45 45 44 44 43 42 42 41 41 41 41 40 39 38 37 37 36 36 35 35 34 34 34 34 35 37 38 38 39 39 39 40 40 41 41 41 41 41 41 40
42 43 43 44 44 45 45 45 46 46 46 46 46 46 46 45 45 45 45 45 45 45 45 46 46 46 46 46 46 45 45 44 43 42 42 41 41 40 40 39 39 38 37 37 36 36 35 35 35 34 34 33 34 35 36 37 37 38 38 38 38 38 39 39 40 40 41 41 41
43 43 44 44 45 45 45 46 46 46 46 46 46 46 45 45 45 45 45 45 46 46 46 46 47 47 47 46 46 45 45 44 43 42 41 40 40 39 39 38 38 38 37 36 36 36 35 35 35 34 34 33 33 34 35 36 37 38 38 39 39 38 38 38 39 40 41 41 40
43 43 44 44 45 45 45 45 45 45 45 45 45 45 45 45 45 45 46 46 47 47 47 47 47 47 47 47 46 45 44 43 42 41 40 39 38 38 38 38 37 37 37 36 36 36 35 35 35 34 33 32 32 33 34 35 36 37 38 39 39 39 39 39 40 40 40 38 37
43 43 43 44 44 44 45 45 45 45 44 45 45 45 45 45 46 46 46 47 47 48 48 48 48 48 48 47 46 45 44 42 41 40 39 38 37 37 37 37 37 37 36 36 36 35 35 34 34 33 32 32 32 33 34 35 36 37 37 38 39 40 40 40 40 38 37 36 36
42 42 42 43 43 44 44 44 44 44 44 44 45 45 45 46 47 47 48 48 48 48 48 48 48 48 47 46 45 44 43 42 41 39 38 37 37 37 37 37 37 37 36 36 35 35 34 34 33 32 32 32 32 32 33 34 35 35 36 37 38 39 39 39 38 37 37 38 38
41 41 41 42 42 43 43 43 43 43 44 44 45 46 46 47 48 48 49 49 49 49 49 48 48 47 46 45 44 43 42 41 40 39 38 37 37 36 37 37 37 36 36 35 35 34 34 33 32 32 31 31 31 32 33 33 34 35 36 37 38 38 38 37 37 38 38 38 38
40 40 40 41 41 42 42 43 43 44 44 45 46 47 47 48 48 49 49 49 49 49 49 48 47 46 45 44 43 42 41 40 40 39 38 37 37 36 36 37 37 36 35 35 34 34 33 32 31 31 30 30 31 31 32 33 34 35 36 37 37 37 37 37 37 37 37 36 34
39 39 39 40 41 41 42 43 44 44 45 46 47 48 48 49 49 49 49 49 49 49 48 48 47 46 44 43 42 41 40 39 39 38 38 37 36 36 36 37 37 36 35 34 33 33 32 31 30 30 30 30 30 31 32 33 34 35 36 36 36 36 36 36 36 35 34 32 31
38 38 39 40 41 42 43 43 44 45 46 47 48 48 49 49 50 50 49 49 48 48 47 47 46 45 44 43 42 41 40 39 38 38 37 36 35 35 35 36 36 36 35 34 33 32 31 30 29 29 29 29 30 30 31 32 33 34 34 34 35 35 35 34 33 32 31 31 30
38 38 39 40 41 42 43 44 45 46 47 48 48 49 49 49 50 49 49 47 46 46 46 45 45 44 43 42 41 41 40 38 37 36 36 35 34 34 35 35 36 35 34 33 32 31 30 29 28 27 27 27 28 29 29 30 31 32 32 33 33 33 33 32 32 31 31 30 30
38 39 39 40 42 43 44 45 46 46 47 48 49 49 49 49 48 48 47 46 44 44 44 44 44 43 42 41 41 40 39 38 36 35 34 34 33 33 34 34 35 34 33 32 31 29 28 27 26 25 24 25 26 27 28 29 30 31 32 32 32 32 32 32 31 31 31 31 31
39 40 40 41 42 43 44 45 46 47 47 47 48 48 48 47 47 47 46 45 43 43 43 43 43 42 41 40 40 39 38 37 35 34 33 33 33 33 33 33 34 33 32 31 29 28 27 25 24 23 23 24 25 26 27 28 30 31 31 32 32 32 32 32 32 31 32 32 32
40 41 41 42 43 43 44 45 46 47 47 47 47 47 46 46 46 45 45 44 43 42 42 42 42 42 41 39 39 38 37 36 34 33 32 32 32 32 32 32 33 33 32 30 29 27 25 24 23 23 23 24 25 26 26 28 29 30 31 31 31 32 32 32 32 32 32 33 32
Wind_Direction
329 329 328 328 327 326 325 325 324 323 320 316 313 310 308 306 305 304 304 305 305 305 304 303 301 300 298 296 293 289 287 285 284 284 285 286 287 288 289 290 291 292 293 294 295 295 296 295 295 294 293 293 293 294 294 295 296 296 295 295 295 294 293 292 291 290 290 288 286
327 327 326 325 325 324 324 324 323 321 318 314 310 308 306 304 303 302 302 302 303 303 303 302 301 299 297 295 292 289 286 284 284 284 284 285 286 287 288 289 290 290 291 292 293 293 294 294 293 292 291 292 292 292 293 294 294 294 294 294 294 293 292 291 291 291 290 288 286
325 325 324 324 323 323 322 322 321 320 316 311 307 304 302 300 300 300 300 300 300 301 301 300 300 298 296 293 290 287 285 284 283 283 283 284 285 286 287 287 288 289 290 291 291 292 293 293 292 291 291 291 291 292 293 294 294 293 293 293 293 292 290 290 291 291 289 287 286
324 323 323 322 322 321 321 320 320 318 314 310 305 301 298 296 296 297 297 298 298 299 299 298 297 295 292 290 287 285 284 283 283 283 284 284 285 286 286 287 288 288 289 290 290 291 292 292 291 291 290 291 291 292 292 293 293 293 292 292 292 291 290 290 290 290 288 287 286
322 322 321 321 321 320 319 318 317 316 314 310 305 300 296 294 294 294 295 296 297 297 297 295 293 291 289 287 286 285 284 284 284 285 285 286 286 287 287 288 288 288 289 290 290 291 291 291 291 290 291 291 291 292 293 293 293 292 292 291 291 290 290 290 290 289 288 286 286
321 320 320 320 319 318 317 317 316 315 314 311 307 302 298 295 293 292 293 294 295 295 294 292 290 289 287 286 286 285 285 286 286 287 287 288 288 288 288 288 289 289 290 290 290 291 291 291 291 291 291 291 292 292 293 293 293 292 292 291 291 290 290 290 290 289 287 286 285
320 319 319 318 317 316 316 316 316 316 315 313 310 305 301 296 293 291 290 291 291 291 291 290 289 288 287 287 287 288 288 289 289 289 289 289 289 289 289 289 289 290 290 290 291 291 291 291 291 291 291 291 292 292 293 293 293 292 291 291 291 291 290 290 289 288 287 285 285
319 318 317 316 316 315 315 316 317 317 316 315 313 309 304 299 294 291 289 287 287 287 287 287 287 288 288 289 290 290 291 291 292 291 291 291 290 290 289 289 289 289 290 290 291 291 291 291 291 290 291 291 291 292 293 293 292 292 291 291 291 290 289 289 289 288 286 285 285
319 318 317 316 316 316 316 317 318 318 318 318 316 313 307 302 296 292 289 286 284 282 282 283 285 287 288 289 290 291 292 293 293 293 293 292 292 291 290 289 289 289 289 290 290 291 292 291 291 291 291 291 292 292 293 293 292 291 290 290 289 289 289 288 288 287 286 285 284
319 318 317 317 317 318 318 319 320 320 320 320 319 316 311 305 299 295 290 286 282 279 278 279 281 284 286 288 290 291 293 294 294 294 294 294 293 292 291 289 288 288 288 289 290 291 292 292 291 291 291 291 292 292 292 292 291 290 289 289 288 288 287 287 286 286 285 284 283
319 319 318 318 319 320 321 321 322 322 322 322 321 318 315 309 303 298 292 287 282 278 276 277 279 282 284 287 289 291 292 293 294 295 295 294 293 292 291 289 288 287 287 289 290 292 292 292 291 291 291 291 291 291 291 291 290 289 288 288 287 286 286 285 285 284 283 283 282
320 320 320 320 321 322 323 324 324 324 324 324 323 321 318 313 307 300 295 289 285 281 279 279 280 282 284 286 288 290 292 293 294 295 295 294 293 292 291 289 288 287 287 289 290 291 291 291 290 290 290 290 289 289 289 289 289 288 287 286 286 285 284 284 284 283 282 282 281
321 321 322 323 323 324 325 325 326 326 326 325 324 323 321 317 311 305 298 293 288 285 283 282 283 284 285 287 289 290 292 293 294 295 295 294 293 292 291 289 288 288 288 289 289 289 289 289 289 288 288 288 287 287 287 287 286 286 285 285 284 283 283 283 283 282 282 281 280
322 323 324 325 325 326 326 326 326 326 326 326 325 324 323 320 316 311 304 298 293 290 289 288 287 287 288 289 291 292 293 294 294 294 294 293 292 292 291 290 289 288 288 288 288 288 288 288 287 287 287 286 286 286 286 285 285 284 284 283 283 282 282 282 282 282 281 280 280
324 324 325 326 326 326 326 326 326 326 326 325 325 324 323 322 320 316 311 306 302 298 296 294 293 293 293 293 293 294 294 294 294 293 293 292 291 291 290 289 288 288 287 287 287 287 287 287 287 287 286 286 285 285 285 285 285 284 284 283 283 282 282 281 281 281 280 280 280
324 325 325 325 325 325 325 325 325 324 324 324 324 323 322 321 320 318 315 312 309 306 304 301 300 299 298 297 296 295 295 294 293 292 292 291 290 290 289 288 287 286 286 286 286 286 287 287 287 287 287 286 286 285 285 285 285 285 285 284 283 282 282 281 281 280 280 279 279
324 324 324 324 324 323 323 323 323 322 322 322 321 321 320 319 317 316 314 312 311 309 307 305 303 301 300 299 297 296 295 294 293 292 291 290 290 289 288 287 287 286 286 286 287 287 287 287 288 287 287 286 286 286 286 286 286 286 286 285 284 283 281 281 280 279 279 279 279
322 323 322 322 321 321 320 320 320 320 319 319 319 318 317 316 315 313 312 311 309 307 306 304 303 301 300 298 297 296 294 293 292 291 291 290 289 289 288 288 287 287 287 287 288 288 288 288 288 288 287 287 286 286 286 287 287 287 287 286 284 283 281 280 279 278 278 278 278
321 321 320 320 319 318 318 318 317 317 317 316 316 315 314 313 312 310 309 308 307 305 304 303 302 301 299 298 297 296 295 294 293 292 292 291 290 290 289 289 289 289 289 289 289 289 289 289 289 288 288 287 287 287 287 288 288 288 288 286 285 282 280 279 278 277 277 278 278
319 319 318 317 317 316 316 315 315 314 314 313 313 312 311 310 310 308 307 306 306 304 303 302 302 301 300 299 299 298 297 296 296 295 294 293 293 292 292 291 291 291 291 291 290 290 290 290 290 290 289 289 289 288 289 289 289 289 288 286 284 282 280 278 277 277 277 277 278
318 317 316 315 314 314 313 313 312 312 311 311 310 310 310 309 308 308 307 306 306 305 304 303 302 302 302 301 301 300 300 299 299 298 298 297 296 296 295 295 294 294 293 293 292 292 292 292 292 292 291 291 290 290 290 290 290 289 287 285 283 281 279 278 277 277 277 278 278
316 315 314 313 312 312 311 311 310 310 310 310 310 309 309 309 309 308 307 307 306 305 305 304 304 303 303 303 303 303 302 302 302 302 301 301 301 300 299 299 298 297 296 295 295 295 294 294 294 294 293 293 292 292 291 291 290 288 287 285 283 281 279 278 278 278 278 279 280
315 314 313 312 311 310 310 309 309 309 309 309 309 309 309 309 309 309 308 308 307 306 306 305 305 305 305 304 304 304 304 304 304 304 304 304 304 304 303 303 301 300 299 298 298 298 298 297 297 296 295 295 294 293 292 291 290 288 286 285 283 281 280 279 279 280 280 282 283
315 313 312 311 310 309 309 309 309 309 309 309 309 310 310 310 310 309 309 309 308 307 307 306 306 306 306 306 306 306 306 306 306 306 306 307 307 306 306 305 304 303 302 301 301 301 301 300 300 299 298 297 297 296 294 293 292 290 288 286 285 284 282 282 282 282 283 284 285
314 313 312 311 310 309 309 309 309 309 309 309 309 310 310 310 310 310 310 309 309 308 307 307 307 307 307 307 307 307 307 308 309 309 309 309 308 308 308 307 305 304 304 303 303 303 303 303 302 302 301 300 299 298 297 295 294 292 291 290 289 288 287 286 286 286 286 286 287
314 313 312 311 310 310 309 309 309 309 309 309 309 310 310 310 310 310 310 310 309 309 309 308 308 309 309 309 308 308 309 310 311 311 311 310 310 309 308 307 306 305 305 305 305 305 304 304 303 303 302 301 299 298 297 295 294 293 292 292 291 291 290 290 290 289 289 288 288
314 313 312 311 310 310 310 309 309 309 309 309 309 310 310 311 311 311 311 311 311 310 310 310 311 311 311 311 311 311 311 311 312 312 311 310 310 309 308 307 306 306 306 306 306 306 306 305 304 303 301 299 297 295 293 292 292 291 291 290 290 290 290 291 291 290 290 289 289
313 313 312 311 311 310 310 310 310 309 309 310 310 310 311 312 312 313 313 312 312 312 312 313 313 313 313 312 312 312 312 312 312 312 311 310 309 308 308 307 307 306 307 307 307 307 306 305 304 302 300 297 295 293 291 290 289 289 288 288 288 288 289 289 290 289 289 289 289
314 313 312 312 311 311 310 310 310 310 310 311 311 312 313 313 314 314 314 314 314 314 314 314 314 314 314 314 313 313 313 313 312 312 311 310 309 308 308 307 307 307 307 308 307 307 306 305 303 302 300 298 295 293 291 290 289 288 287 286 286 286 287 287 287 287 287 287 286
314 313 313 312 312 311 311 311 311 311 312 312 313 314 315 315 315 315 315 315 315 315 315 315 315 315 315 314 314 314 313 313 312 312 311 310 309 309 308 307 307 307 307 308 307 306 305 304 303 301 300 299 296 293 291 289 288 287 286 285 285 286 286 286 286 285 284 284 284
314 314 313 313 312 312 312 312 312 313 313 314 315 316 316 316 316 316 316 316 316 316 316 316 316 315 315 315 315 314 313 313 313 312 311 311 310 309 308 307 307 307 307 307 306 305 304 303 302 301 300 298 295 292 290 289 287 286 286 285 285 286 286 285 283 282 281 282 284
315 314 314 313 313 313 313 313 314 314 315 316 316 317 317 316 316 316 316 316 316 316 316 316 316 316 316 315 315 314 313 313 313 312 312 311 310 309 308 307 306 306 306 306 305 304 304 303 302 301 299 297 294 292 290 288 287 286 285 285 286 286 285 284 282 280 281 283 285
316 315 314 314 314 314 314 315 315 316 316 317 317 317 317 316 316 316 316 316 317 317 317 317 317 317 316 315 315 314 314 313 313 312 312 311 310 308 307 306 305 305 305 305 305 304 304 303 302 301 299 297 295 292 290 289 287 287 286 286 286 285 284 282 281 281 282 284 285
316 315 315 315 315 315 315 316 316 317 317 317 317 317 317 316 316 316 316 317 317 317 317 317 317 317 316 315 315 314 314 313 313 312 312 311 310 308 306 305 305 305 305 306 305 305 305 304 303 301 299 298 296 293 292 290 290 289 288 287 286 284 283 282 282 282 283 283 283
317 316 316 315 316 316 316 317 317 317 317 317 317 317 317 316 316 316 317 317 318 318 318 317 317 317 316 315 315 314 313 313 313 312 311 311 310 308 307 306 306 306 306 307 307 306 306 305 304 302 301 299 297 295 294 293 292 291 290 288 286 284 283 283 283 284 284 284 284
318 317 316 316 316 317 317 317 317 317 317 316 316 316 317 317 317 317 318 318 318 318 318 318 317 317 316 315 315 314 313 312 312 312 311 310 310 309 308 307 307 307 308 308 308 308 307 306 305 303 302 300 297 296 295 294 293 291 290 288 286 285 285 286 286 286 286 286 287
318 317 317 317 317 317 317 317 317 317 316 316 316 317 317 317 317 318 318 319 319 319 319 318 318 317 316 315 314 313 312 312 311 311 311 311 310 310 310 310 309 309 309 310 310 309 308 307 306 304 302 300 298 297 296 294 292 291 289 289 288 289 289 290 290 290 289 289 289
318 318 318 317 317 317 317 317 317 316 316 316 317 317 317 317 318 318 319 320 320 320 319 319 317 317 316 315 314 313 312 311 311 311 311 311 312 312 312 312 311 310 311 311 311 311 309 308 307 305 302 300 299 298 296 294 292 291 291 291 292 293 293 293 293 292 292 291 291
318 318 318 317 317 317 317 317 316 316 317 317 317 318 318 318 319 319 320 321 321 320 319 318 317 316 315 315 313 312 311 311 311 312 312 313 313 313 312 312 311 311 311 312 312 312 311 309 308 306 305 303 301 298 296 294 294 294 294 295 296 296 296 296 295 294 293 293 293
318 318 318 317 317 317 317 317 317 317 317 318 318 319 319 319 319 320 321 321 321 320 318 317 316 315 315 314 313 312 311 311 312 313 314 314 314 313 313 312 312 311 312 313 314 314 313 312 311 310 308 305 302 299 296 295 295 296 296 297 297 297 297 296 295 294 294 293 293
318 318 318 317 317 317 317 317 317 318 318 319 319 319 320 320 320 321 321 321 320 319 318 317 316 315 314 313 312 312 312 313 313 314 315 315 315 314 313 313 313 313 313 315 316 316 316 315 314 313 309 304 301 298 297 296 296 296 296 297 297 297 296 296 295 294 294 294 294